Regional Weather Roundup
Issued by NWS Charleston, SC

Current Version | Previous Version | Graphics & Text | Print | Product List | Glossary On
Versions: 1 2 3 4 5 6 7 8 9 10 11 12 13 14 15 16 17 18 19 20 21 22 23 24 25 26 27 28 29 30 31 32 33 34 35 36 37 38 39 40 41 42 43 44 45 46 47 48 49 50
000 ASUS42 KCHS 191710 RWRCHS REGIONAL WEATHER ROUNDUP NATIONAL WEATHER SERVICE CHARLESTON SC 100 PM EDT TUE AUG 19 2014 NOTE: "FAIR" INDICATES FEW OR NO CLOUDS BELOW 12,000 FEET WITH NO SIGNIFICANT WEATHER AND/OR OBSTRUCTIONS TO VISIBILITY. NOT ALL STATIONS ARE QUALITY CONTROLLED BY THE NATIONAL WEATHER SERVICE. USE DATA WITH CAUTION...ESPECIALLY DEWPOINT OBSERVATIONS. SCZ027-030-031-034>040-042>050-191800- ...SOUTH CAROLINA... CITY SKY/WX TMP DP RH WIND PRES REMARKS N CHARLESTON MOSUNNY 90 71 53 W14G23 29.90F HX 96 WATERFRONT PRK N/A 88 N/A N/A W13G21 N/A FORT JOHNSON NOT AVBL MOUNT PLEASANT FAIR 90 73 58 W12G20 29.90F HX 98 JOHNS ISLAND MOSUNNY 90 75 62 SW14 29.91F HX 100 PINOPOLIS N/A 86 72 62 W12 29.81F HX 92 MONCKS CORNER NOT AVBL SUMMERVILLE PTSUNNY 90 73 58 SW12 29.91F HX 98 BEAUFORT MCAS PTSUNNY 89 72 56 NW16 29.92F HX 96 BEAUFORT ARPT PTSUNNY 90 75 62 W14G22 29.92F HX 100 HILTON HEAD IS MOSUNNY 91 75 59 SW13 29.94F HX 102 GEORGETOWN NOT AVBL WALTERBORO PTSUNNY 90 66 45 W16G25 29.91F HX 92 ORANGEBURG PTSUNNY 85 69 58 W15 29.89F BARNWELL PTSUNNY 88 72 58 W10 29.91F HX 94 AIKEN FAIR 86 73 66 W12G22 29.95S HX 93 MANNING PTSUNNY 88 72 58 W9G21 29.89S HX 94 KINGSTREE NOT AVBL COLUMBIA LGT RAIN 78 71 79 W13 29.89S SUMTER PTSUNNY 84 72 66 SW13 29.86F HX 90 FLORENCE MOSUNNY 89 69 51 SW10 29.86F HX 93 MYRTLE BEACH MOSUNNY 88 72 58 W13 29.88F HX 94 N MYRTLE BEACH SUNNY 88 71 57 SW12 29.86F HX 94 $$ GAZ063-065-086>088-099>101-113>116-118-119-134-136>141-150-191800- ...GEORGIA... CITY SKY/WX TMP DP RH WIND PRES REMARKS SAVANNAH ARPT PTSUNNY 90 73 57 SW15 29.94F HX 98 HUNTER AAF MOSUNNY 90 75 60 SW15 29.92F HX 101 FORT STEWART TSTM 73 70 88 W14G28 29.97R VSB 3/4 STATESBORO NOT AVBL SYLVANIA PTSUNNY 89 76 65 W14G21 29.92F HX 99 CLAXTON FAIR 75 75 100 W5 29.96S THOMSON MOSUNNY 89 76 65 W12 29.96S HX 99 AUGUSTA-BUSH MOSUNNY 88 70 55 W16G23 29.90F HX 93 AUGUSTA-DANIEL MOSUNNY 88 70 55 W9 29.92F HX 93 SWAINSBORO FAIR 82 77 83 SW6 29.95F HX 91 VIDALIA N/A 73 72 94 W3 29.96F ALMA PTSUNNY 87 74 64 SW9 29.95F HX 95 WAYCROSS PTSUNNY 93 77 59 W10G16 29.96F HX 107 JESUP N/A 91 77 62 W7 29.97F HX 105 BRUNSWICK MOSUNNY 91 72 52 W8G16 29.98F HX 98 SAINT SIMONS MOSUNNY 89 73 59 W8 29.97F HX 97 $$ SCZ027-028-034-036>038-045-046-048>050-GAZ119-141-191800- ...LAKE AND SUPPLEMENTAL COASTAL OBSERVATIONS... STATION/POSITION TIME TEMP WIND PRES WAVE SWELL AIR SEA DIR/SP/G HT/PER HT/PER/DIR (UTC) (F) (DEG/KT/KT) (MB) (FT/S) (FT/S/D) UPR LAKE MARION NOT AVBL WINYAH BAY 1600 84 260/ 10 1012.0S LAKE MURRAY 1600 76 260/ 11/ 16 1011.9S ACE BASIN NERRS 1600 86 250/ 5 1014.0S FORT PULASKI 1700 87 260/ 10/ 14 1014.2F SAPELO ISLAND 1600 87 270/ 12 1016.0S $$ ANZ835-935-AMZ111-154-330-350-352-354-374-450-454-472-191800- ...C-MAN AND BUOY OBSERVATIONS... STATION/POSITION TIME TEMP WIND PRES WAVE SWELL AIR SEA DIR/SP/G HT/PER HT/PER/DIR (UTC) (F) (DEG/KT/KT) (MB) (FT/S) (FT/S/D) FOLLY BEACH CMAN 1600 87 250/ 9/ 13 1013.5F BUOY 41004 1700 83 83 250/ 16/ 19 1012.5F 6/ 6 2/12 BUOY 41008 1700 85 85 260/ 14/ 17 1014.8F 2/ 4 5E ST. MARYS GA 1700 82 N/A 1/ 2 FRYING PAN BUOY NOT AVBL BUOY 41025 1700 80 220/ 14/ 16 1009.7F 4/ 6 2/210/ 7 CAPE LOOKOUT NC 1600 82 250/ 8/ 11 1010.5R BUOY 41002 1617 81 81 240/ 16/ 19 1014.2F 5/ 7 2/130/11 BUOY 41010 1700 84 86 240/ 12/ 14 1016.7F 3/ 5 2/140/ 8 BUOY 41012 NOT AVBL ST AUGUSTINE FL 1700 89 270/ 8/ 10 1016.8F CAPERS NEARSHORE NOT AVBL FRIPP NEARSHORE NOT AVBL $$

USA.gov is the U.S. government's official web portal to all federal, state and local government web resources and services.